Time,TemperatureF,DewpointF,PressureIn,WindDirection,WindDirectionDegrees,WindSpeedMPH,WindSpeedGustMPH,Humidity,HourlyPrecipIn,Conditions,Clouds,dailyrainin,SoftwareType,DateUTC
2013-02-24 00:01:00,23.0,18.0,-100.00,NE,49,2.0,3.0,80,-99.99,,,-99.99,,2013-02-24 07:01:00,
2013-02-24 00:11:00,23.0,18.0,-100.00,NE,55,2.0,3.0,80,-99.99,,,-99.99,,2013-02-24 07:11:00,
2013-02-24 00:21:00,23.0,17.0,-100.00,NE,38,3.0,5.0,80,-99.99,,,-99.99,,2013-02-24 07:21:00,
2013-02-24 00:31:00,23.0,17.0,-100.00,NE,38,3.0,5.0,80,-99.99,,,-99.99,,2013-02-24 07:31:00,
2013-02-24 00:41:00,23.0,17.0,-100.00,North,8,4.0,6.0,79,-99.99,,,-99.99,,2013-02-24 07:41:00,
2013-02-24 00:51:00,23.0,18.0,-100.00,ENE,70,5.0,6.0,79,-99.99,,,-99.99,,2013-02-24 07:51:00,
2013-02-24 01:01:00,23.0,17.0,-100.00,NNE,32,7.0,10.0,80,-99.99,,,-99.99,,2013-02-24 08:01:00,
2013-02-24 01:11:00,22.0,18.0,-100.00,NE,36,5.0,8.0,84,-99.99,,,-99.99,,2013-02-24 08:11:00,
2013-02-24 01:22:00,21.0,19.0,-100.00,NE,45,5.0,6.0,89,-99.99,,,-99.99,,2013-02-24 08:22:00,
2013-02-24 01:31:00,21.0,19.0,-100.00,NNE,31,6.0,8.0,90,-99.99,,,-99.99,,2013-02-24 08:31:00,
2013-02-24 01:41:00,21.0,19.0,-100.00,NE,50,4.0,6.0,90,-99.99,,,-99.99,,2013-02-24 08:41:00,
2013-02-24 01:53:00,21.0,19.0,-100.00,ENE,70,5.0,7.0,91,-99.99,,,-99.99,,2013-02-24 08:53:00,
2013-02-24 02:01:00,21.0,19.0,-100.00,NE,38,4.0,6.0,91,-99.99,,,-99.99,,2013-02-24 09:01:00,
2013-02-24 02:11:00,21.0,19.0,-100.00,NE,39,3.0,5.0,91,-99.99,,,-99.99,,2013-02-24 09:11:00,
2013-02-24 02:21:00,21.0,19.0,-100.00,ENE,62,4.0,5.0,90,-99.99,,,-99.99,,2013-02-24 09:21:00,
2013-02-24 02:31:00,21.0,19.0,-100.00,NE,54,3.0,5.0,90,-99.99,,,-99.99,,2013-02-24 09:31:00,
2013-02-24 02:41:00,21.0,19.0,-100.00,NE,43,3.0,4.0,90,-99.99,,,-99.99,,2013-02-24 09:41:00,
2013-02-24 02:51:00,21.0,19.0,-100.00,NE,52,3.0,4.0,90,-99.99,,,-99.99,,2013-02-24 09:51:00,
2013-02-24 03:01:00,21.0,19.0,-100.00,NNE,20,3.0,5.0,89,-99.99,,,-99.99,,2013-02-24 10:01:00,
2013-02-24 03:11:00,21.0,18.0,-100.00,NNE,33,3.0,3.0,89,-99.99,,,-99.99,,2013-02-24 10:11:00,
2013-02-24 03:21:00,21.0,18.0,-100.00,NNE,12,3.0,4.0,88,-99.99,,,-99.99,,2013-02-24 10:21:00,
2013-02-24 03:31:00,21.0,18.0,-100.00,NNE,33,3.0,5.0,88,-99.99,,,-99.99,,2013-02-24 10:31:00,
2013-02-24 03:41:00,22.0,17.0,-100.00,NNE,19,4.0,7.0,84,-99.99,,,-99.99,,2013-02-24 10:41:00,
2013-02-24 03:51:00,21.0,17.0,-100.00,NE,40,5.0,6.0,84,-99.99,,,-99.99,,2013-02-24 10:51:00,
2013-02-24 04:01:00,22.0,17.0,-100.00,NNE,17,6.0,7.0,80,-99.99,,,-99.99,,2013-02-24 11:01:00,
2013-02-24 04:11:00,22.0,17.0,-100.00,NNE,30,4.0,7.0,79,-99.99,,,-99.99,,2013-02-24 11:11:00,
2013-02-24 04:21:00,22.0,16.0,-100.00,NNE,30,4.0,5.0,79,-99.99,,,-99.99,,2013-02-24 11:21:00,
2013-02-24 04:32:00,22.0,16.0,-100.00,NE,36,4.0,6.0,79,-99.99,,,-99.99,,2013-02-24 11:32:00,
2013-02-24 04:41:00,22.0,17.0,-100.00,NNE,30,7.0,7.0,79,-99.99,,,-99.99,,2013-02-24 11:41:00,
2013-02-24 04:52:00,22.0,17.0,-100.00,NNE,32,5.0,8.0,79,-99.99,,,-99.99,,2013-02-24 11:52:00,
2013-02-24 05:01:00,22.0,17.0,-100.00,NNE,33,4.0,6.0,80,-99.99,,,-99.99,,2013-02-24 12:01:00,
2013-02-24 05:11:00,22.0,17.0,-100.00,NE,48,5.0,6.0,79,-99.99,,,-99.99,,2013-02-24 12:11:00,
2013-02-24 05:21:00,22.0,17.0,-100.00,NE,42,7.0,8.0,79,-99.99,,,-99.99,,2013-02-24 12:21:00,
2013-02-24 05:32:00,22.0,17.0,-100.00,NE,42,7.0,8.0,79,-99.99,,,-99.99,,2013-02-24 12:32:00,
2013-02-24 05:44:00,22.0,17.0,-100.00,NNE,28,6.0,9.0,80,-99.99,,,-99.99,,2013-02-24 12:44:00,
2013-02-24 05:55:00,22.0,17.0,-100.00,North,10,5.0,6.0,81,-99.99,,,-99.99,,2013-02-24 12:55:00,
2013-02-24 06:05:00,22.0,17.0,-100.00,North,10,5.0,6.0,81,-99.99,,,-99.99,,2013-02-24 13:05:00,
2013-02-24 06:32:00,22.0,17.0,-100.00,NNE,32,5.0,6.0,82,-99.99,,,-99.99,,2013-02-24 13:32:00,
2013-02-24 06:43:00,22.0,17.0,-100.00,North,9,3.0,5.0,82,-99.99,,,-99.99,,2013-02-24 13:43:00,
2013-02-24 06:51:00,22.0,16.0,-100.00,North,1,7.0,11.0,79,-99.99,,,-99.99,,2013-02-24 13:51:00,
2013-02-24 07:02:00,22.0,16.0,-100.00,NE,40,10.0,15.0,76,-99.99,,,-99.99,,2013-02-24 14:02:00,
2013-02-24 07:12:00,22.0,16.0,-100.00,NNE,33,11.0,14.0,75,-99.99,,,-99.99,,2013-02-24 14:12:00,
2013-02-24 07:32:00,22.0,16.0,-100.00,NNE,24,12.0,16.0,75,-99.99,,,-99.99,,2013-02-24 14:32:00,
2013-02-24 07:43:00,22.0,15.0,-100.00,NNE,29,12.0,18.0,76,-99.99,,,-99.99,,2013-02-24 14:43:00,
2013-02-24 07:52:00,22.0,15.0,-100.00,NNE,26,15.0,18.0,75,-99.99,,,-99.99,,2013-02-24 14:52:00,
2013-02-24 08:02:00,22.0,15.0,-100.00,NNE,29,15.0,18.0,74,-99.99,,,-99.99,,2013-02-24 15:02:00,
2013-02-24 08:11:00,22.0,15.0,-100.00,NE,41,14.0,19.0,73,-99.99,,,-99.99,,2013-02-24 15:11:00,
2013-02-24 08:22:00,22.0,14.0,-100.00,NE,45,15.0,19.0,72,-99.99,,,-99.99,,2013-02-24 15:22:00,
2013-02-24 08:31:00,22.0,13.0,-100.00,NE,43,14.0,16.0,68,-99.99,,,-99.99,,2013-02-24 15:31:00,
2013-02-24 08:42:00,22.0,14.0,-100.00,NE,49,15.0,20.0,68,-99.99,,,-99.99,,2013-02-24 15:42:00,
2013-02-24 08:52:00,22.0,13.0,-100.00,NE,39,12.0,17.0,69,-99.99,,,-99.99,,2013-02-24 15:52:00,
2013-02-24 09:01:00,22.0,13.0,-100.00,NE,39,12.0,17.0,69,-99.99,,,-99.99,,2013-02-24 16:01:00,
2013-02-24 09:11:00,22.0,12.0,-100.00,NE,42,11.0,14.0,65,-99.99,,,-99.99,,2013-02-24 16:11:00,
2013-02-24 09:21:00,22.0,13.0,-100.00,NE,34,11.0,15.0,66,-99.99,,,-99.99,,2013-02-24 16:21:00,
2013-02-24 09:31:00,22.0,13.0,-100.00,NNE,29,11.0,14.0,68,-99.99,,,-99.99,,2013-02-24 16:31:00,
2013-02-24 09:41:00,22.0,13.0,-100.00,NE,39,11.0,15.0,67,-99.99,,,-99.99,,2013-02-24 16:41:00,
2013-02-24 09:51:00,22.0,13.0,-100.00,NE,39,11.0,15.0,67,-99.99,,,-99.99,,2013-02-24 16:51:00,
2013-02-24 10:01:00,22.0,13.0,-100.00,NNE,21,11.0,14.0,66,-99.99,,,-99.99,,2013-02-24 17:01:00,
2013-02-24 10:11:00,22.0,13.0,-100.00,NNE,19,12.0,15.0,65,-99.99,,,-99.99,,2013-02-24 17:11:00,
2013-02-24 10:21:00,22.0,13.0,-100.00,NNE,28,13.0,17.0,66,-99.99,,,-99.99,,2013-02-24 17:21:00,
2013-02-24 10:31:00,23.0,13.0,-100.00,NNE,30,11.0,16.0,64,-99.99,,,-99.99,,2013-02-24 17:31:00,
2013-02-24 10:41:00,23.0,12.0,-100.00,NNE,28,13.0,16.0,62,-99.99,,,-99.99,,2013-02-24 17:41:00,
2013-02-24 10:52:00,24.0,14.0,-100.00,North,2,9.0,16.0,63,-99.99,,,-99.99,,2013-02-24 17:52:00,
2013-02-24 11:01:00,24.0,12.0,-100.00,North,6,9.0,11.0,60,-99.99,,,-99.99,,2013-02-24 18:01:00,
2013-02-24 11:11:00,24.0,12.0,-100.00,NE,35,12.0,16.0,59,-99.99,,,-99.99,,2013-02-24 18:11:00,
2013-02-24 11:21:00,24.0,12.0,-100.00,NE,35,12.0,16.0,59,-99.99,,,-99.99,,2013-02-24 18:21:00,
2013-02-24 11:31:00,23.0,12.0,-100.00,NNE,32,15.0,16.0,60,-99.99,,,-99.99,,2013-02-24 18:31:00,
2013-02-24 11:41:00,23.0,12.0,-100.00,NNE,32,15.0,16.0,60,-99.99,,,-99.99,,2013-02-24 18:41:00,
2013-02-24 11:51:00,25.0,13.0,-100.00,North,6,10.0,15.0,60,-99.99,,,-99.99,,2013-02-24 18:51:00,
2013-02-24 12:01:00,25.0,13.0,-100.00,North,6,10.0,15.0,60,-99.99,,,-99.99,,2013-02-24 19:01:00,
2013-02-24 12:11:00,25.0,14.0,-100.00,North,7,11.0,13.0,63,-99.99,,,-99.99,,2013-02-24 19:11:00,
2013-02-24 12:22:00,25.0,14.0,-100.00,NNE,12,10.0,13.0,61,-99.99,,,-99.99,,2013-02-24 19:22:00,
2013-02-24 12:31:00,25.0,14.0,-100.00,NNE,12,10.0,13.0,61,-99.99,,,-99.99,,2013-02-24 19:31:00,
2013-02-24 12:41:00,25.0,15.0,-100.00,NNE,12,12.0,16.0,65,-99.99,,,-99.99,,2013-02-24 19:41:00,
2013-02-24 12:51:00,26.0,16.0,-100.00,NNE,14,12.0,14.0,66,-99.99,,,-99.99,,2013-02-24 19:51:00,
2013-02-24 13:02:00,25.0,14.0,-100.00,North,6,13.0,14.0,61,-99.99,,,-99.99,,2013-02-24 20:02:00,
2013-02-24 13:11:00,26.0,15.0,-100.00,NNE,13,12.0,14.0,63,-99.99,,,-99.99,,2013-02-24 20:11:00,
2013-02-24 13:21:00,26.0,15.0,-100.00,North,7,12.0,14.0,61,-99.99,,,-99.99,,2013-02-24 20:21:00,
2013-02-24 13:31:00,26.0,15.0,-100.00,North,7,12.0,14.0,61,-99.99,,,-99.99,,2013-02-24 20:31:00,
2013-02-24 13:41:00,26.0,16.0,-100.00,NNE,17,12.0,15.0,64,-99.99,,,-99.99,,2013-02-24 20:41:00,
2013-02-24 13:52:00,27.0,15.0,-100.00,North,353,12.0,15.0,59,-99.99,,,-99.99,,2013-02-24 20:52:00,
2013-02-24 14:01:00,27.0,16.0,-100.00,NNE,17,12.0,15.0,63,-99.99,,,-99.99,,2013-02-24 21:01:00,
2013-02-24 14:11:00,27.0,15.0,-100.00,NNE,14,12.0,16.0,58,-99.99,,,-99.99,,2013-02-24 21:11:00,
2013-02-24 14:21:00,27.0,15.0,-100.00,NNE,14,12.0,16.0,58,-99.99,,,-99.99,,2013-02-24 21:21:00,
2013-02-24 14:31:00,27.0,15.0,-100.00,North,7,11.0,14.0,59,-99.99,,,-99.99,,2013-02-24 21:31:00,
2013-02-24 14:41:00,27.0,15.0,-100.00,NNE,14,9.0,15.0,58,-99.99,,,-99.99,,2013-02-24 21:41:00,
2013-02-24 14:52:00,27.0,17.0,-100.00,NNE,19,11.0,15.0,63,-99.99,,,-99.99,,2013-02-24 21:52:00,
2013-02-24 15:01:00,28.0,16.0,-100.00,North,6,11.0,14.0,59,-99.99,,,-99.99,,2013-02-24 22:01:00,
2013-02-24 15:11:00,28.0,16.0,-100.00,North,8,10.0,14.0,59,-99.99,,,-99.99,,2013-02-24 22:11:00,
2013-02-24 15:21:00,28.0,14.0,-100.00,NNE,12,12.0,13.0,55,-99.99,,,-99.99,,2013-02-24 22:21:00,
2013-02-24 15:31:00,28.0,16.0,-100.00,North,7,10.0,14.0,60,-99.99,,,-99.99,,2013-02-24 22:31:00,
2013-02-24 15:41:00,28.0,16.0,-100.00,North,7,10.0,14.0,60,-99.99,,,-99.99,,2013-02-24 22:41:00,
2013-02-24 15:51:00,28.0,16.0,-100.00,NNE,17,10.0,14.0,60,-99.99,,,-99.99,,2013-02-24 22:51:00,
2013-02-24 16:01:00,28.0,13.0,-100.00,NE,34,11.0,15.0,53,-99.99,,,-99.99,,2013-02-24 23:01:00,
2013-02-24 16:11:00,28.0,13.0,-100.00,NE,34,11.0,15.0,53,-99.99,,,-99.99,,2013-02-24 23:11:00,
2013-02-24 16:21:00,28.0,13.0,-100.00,NNE,18,12.0,17.0,52,-99.99,,,-99.99,,2013-02-24 23:21:00,
2013-02-24 16:31:00,28.0,13.0,-100.00,NNE,18,12.0,17.0,52,-99.99,,,-99.99,,2013-02-24 23:31:00,
2013-02-24 16:41:00,28.0,16.0,-100.00,NNE,22,11.0,13.0,59,-99.99,,,-99.99,,2013-02-24 23:41:00,
2013-02-24 16:52:00,27.0,14.0,-100.00,NNE,24,14.0,16.0,57,-99.99,,,-99.99,,2013-02-24 23:52:00,
2013-02-24 17:01:00,27.0,14.0,-100.00,NNE,24,14.0,16.0,57,-99.99,,,-99.99,,2013-02-25 00:01:00,
2013-02-24 17:11:00,28.0,15.0,-100.00,NNE,15,8.0,14.0,57,-99.99,,,-99.99,,2013-02-25 00:11:00,
2013-02-24 17:21:00,28.0,14.0,-100.00,NNE,12,10.0,15.0,56,-99.99,,,-99.99,,2013-02-25 00:21:00,
2013-02-24 17:31:00,27.0,13.0,-100.00,NNE,18,12.0,14.0,55,-99.99,,,-99.99,,2013-02-25 00:31:00,
2013-02-24 17:41:00,27.0,14.0,-100.00,NNE,32,10.0,13.0,56,-99.99,,,-99.99,,2013-02-25 00:41:00,
2013-02-24 17:51:00,27.0,13.0,-100.00,NNE,13,11.0,14.0,55,-99.99,,,-99.99,,2013-02-25 00:51:00,
2013-02-24 18:01:00,26.0,13.0,-100.00,North,11,9.0,11.0,56,-99.99,,,-99.99,,2013-02-25 01:01:00,
2013-02-24 18:11:00,25.0,12.0,-100.00,NNE,18,9.0,12.0,57,-99.99,,,-99.99,,2013-02-25 01:11:00,
2013-02-24 18:21:00,25.0,12.0,-100.00,NNE,18,9.0,12.0,57,-99.99,,,-99.99,,2013-02-25 01:21:00,
2013-02-24 18:31:00,24.0,12.0,-100.00,NNE,30,7.0,8.0,59,-99.99,,,-99.99,,2013-02-25 01:31:00,
2013-02-24 18:42:00,24.0,11.0,-100.00,NE,35,8.0,10.0,57,-99.99,,,-99.99,,2013-02-25 01:42:00,
2013-02-24 18:51:00,25.0,12.0,-100.00,NE,36,11.0,14.0,58,-99.99,,,-99.99,,2013-02-25 01:51:00,
2013-02-24 19:01:00,24.0,12.0,-100.00,NE,37,10.0,14.0,58,-99.99,,,-99.99,,2013-02-25 02:01:00,
2013-02-24 19:11:00,24.0,12.0,-100.00,NNE,26,9.0,10.0,60,-99.99,,,-99.99,,2013-02-25 02:11:00,
2013-02-24 19:21:00,24.0,12.0,-100.00,NNE,26,9.0,10.0,60,-99.99,,,-99.99,,2013-02-25 02:21:00,
2013-02-24 19:31:00,25.0,11.0,-100.00,NE,42,8.0,11.0,56,-99.99,,,-99.99,,2013-02-25 02:31:00,
2013-02-24 19:41:00,24.0,11.0,-100.00,NE,35,8.0,12.0,56,-99.99,,,-99.99,,2013-02-25 02:41:00,
2013-02-24 19:52:00,24.0,11.0,-100.00,NE,35,8.0,12.0,56,-99.99,,,-99.99,,2013-02-25 02:52:00,
2013-02-24 20:01:00,24.0,11.0,-100.00,NE,35,8.0,12.0,56,-99.99,,,-99.99,,2013-02-25 03:01:00,
2013-02-24 20:11:00,24.0,11.0,-100.00,NE,35,8.0,12.0,56,-99.99,,,-99.99,,2013-02-25 03:11:00,
2013-02-24 23:31:00,20.0,8.0,-100.00,East,93,4.0,5.0,58,-99.99,,,-99.99,,2013-02-25 06:31:00,
2013-02-24 23:41:00,20.0,8.0,-100.00,East,93,4.0,5.0,58,-99.99,,,-99.99,,2013-02-25 06:41:00,
2013-02-24 23:51:00,17.0,8.0,-100.00,SE,124,7.0,7.0,66,-99.99,,,-99.99,,2013-02-25 06:51:00,